This demonstration page uses our WeatherBlox Daily Observations layout. Learn more.

Left ArrowRight Arrow

44.8408, -93.29828

Hourly Observations for December 30, 2017

Temp ( °F °C ) Dew Point ( °F °C ) Humidity (%) Winds ( mph kmh ) Pressure ( in mb ) Visibility ( mi km ) Precip ( " mm )
12:53 am 00:53 Clear -7 -21.7 -13 -25 75 75 NW 14 22 30.50 1033 10 16 0.00 0.00
1:53 am 01:53 Clear -9 -22.8 -15 -26.1 75 75 NNW 20 31 30.52 1033 10 16 0.00 0.00
2:53 am 02:53 Clear -10 -23.3 -16 -26.7 74 74 NW 15 24 30.54 1034 10 16 0.00 0.00
3:53 am 03:53 Clear -11 -23.9 -17 -27.2 74 74 NW 14 22 30.55 1035 10 16 0.00 0.00
4:53 am 04:53 Clear -12 -24.4 -18 -27.8 73 73 NW 16 26 30.56 1035 10 16 0.00 0.00
5:53 am 05:53 Clear -12 -24.4 -18 -27.8 73 73 NNW 14 22 30.58 1036 10 16 0.00 0.00
6:53 am 06:53 Clear -14 -25.6 -19 -28.3 78 78 NW 16 26 30.60 1036 10 16 0.00 0.00
7:53 am 07:53 Sunny -14 -25.6 -20 -28.9 74 74 NW 13 20 30.60 1036 10 16 0.00 0.00
8:53 am 08:53 Sunny -14 -25.6 -19 -28.3 78 78 NW 14 22 30.62 1037 10 16 0.00 0.00
9:53 am 09:53 Sunny -12 -24.4 -20 -28.9 66 66 NNW 14 22 30.63 1037 10 16 0.00 0.03
10:53 am 10:53 Sunny -11 -23.9 -19 -28.3 67 67 NNW 12 19 30.64 1038 10 16 0.00 0.03
11:53 am 11:53 Sunny -10 -23.3 -18 -27.8 67 67 NW 10 17 30.62 1037 10 16 0.00 0.00
12:53 pm 12:53 Sunny -8 -22.2 -17 -27.2 64 64 WNW 12 19 30.59 1036 10 16 0.00 0.00
1:53 pm 13:53 Sunny -7 -21.7 -16 -26.7 64 64 NW 9 15 30.58 1036 10 16 0.00 0.00
2:53 pm 14:53 Sunny -7 -21.7 -16 -26.7 64 64 WNW 8 13 30.58 1036 10 16 0.00 0.00
3:53 pm 15:53 Partly Cloudy -7 -21.7 -16 -26.7 64 64 WNW 9 15 30.60 1036 10 16 0.00 0.00
4:53 pm 16:53 Mostly Clear -9 -22.8 -17 -27.2 67 67 NW 8 13 30.62 1037 10 16 0.00 0.00
5:53 pm 17:53 Mostly Clear -9 -22.8 -17 -27.2 67 67 NW 8 13 30.63 1037 10 16 0.00 0.00
6:53 pm 18:53 Mostly Cloudy -9 -22.8 -16 -26.7 71 71 NNW 9 15 30.65 1038 10 16 0.00 0.00
7:53 pm 19:53 Mostly Cloudy -8 -22.2 -15 -26.1 71 71 NNW 7 11 30.65 1038 10 16 0.00 0.00
8:53 pm 20:53 Mostly Cloudy -7 -21.7 -15 -26.1 68 68 N 12 19 30.67 1039 10 16 0.00 0.00
9:53 pm 21:53 Mostly Cloudy -7 -21.7 -16 -26.7 64 64 N 10 17 30.71 1040 10 16 0.00 0.00
10:53 pm 22:53 Cloudy -7 -21.7 -16 -26.7 64 64 N 10 17 30.71 1040 10 16 0.00 0.00
11:53 pm 23:53 Cloudy -7 -21.7 -15 -26.1 68 68 N 8 13 30.72 1040 10 16 0.00 0.00

Powered by AerisWeather